Zurück zum Katalog

COSMOS 2251 DEB

AktivLEO
NORAD 33838·DEBRIS·🇷🇺 Russia

Gestartet Jun 16, 1993 von Plesetsk Cosmodrome

Loading…

Nächste Überflüge (nächste 24 Stunden)

TLE

AktuellSource: Space-Track

Epoche: Sep 14, 2026, 06:09 UTC

1 33838U 93036CF  26257.25660493  .00000721  00000-0  19651-3 0  9998
2 33838  74.0393 353.5066 0026058  43.8773 346.7876 14.49035886925593

Verfolge COSMOS 2251 DEB in Echtzeit mit AllMySat

Download on the App Store